When you browse on this site, cookies collect data to enhance your experience and personalize the content and advertising you see.
Visit our Privacy Policy to learn more. By continuing to use the site, you agree to this use of cookies and data.
  • en Suisse
  • Liste des pays
  • À 7 jours
  • Température de l'eau
  • Carte satellitaire
  • Carte météo
  • Widgets météo
  • user-avatar
    Se connecter

    Météo par heure à Yanji

    Ce jour, 23 Juillet, Mardi

    Heure Température Précipitation Vent Pression Humidité
    00:00 +23°C° 0 mm 1 m/s 736 mmHg 92%
    01:00 +23°C° 0 mm 1 m/s 736 mmHg 92%
    02:00 +22°C° 0 mm 1 m/s 736 mmHg 93%
    03:00 +22°C° 0 mm 1 m/s 736 mmHg 94%
    04:00 +22°C° 0 mm 1 m/s 736 mmHg 94%
    05:00 +20°C° 0 mm 0 m/s 736 mmHg 94%
    06:00 +20°C° 0 mm 0 m/s 736 mmHg 94%
    07:00 +23°C° 0 mm 0 m/s 736 mmHg 85%
    08:00 +28°C° 0 mm 1 m/s 736 mmHg 76%
    09:00 +30°C° 0 mm 1 m/s 736 mmHg 66%
    10:00 +32°C° 0 mm 1 m/s 736 mmHg 59%
    11:00 +35°C° 0 mm 2 m/s 736 mmHg 52%
    12:00 +37°C° 0 mm 2 m/s 735 mmHg 45%
    13:00 +37°C° 0 mm 3 m/s 735 mmHg 44%
    14:00 +37°C° 0 mm 3 m/s 735 mmHg 43%
    15:00 +38°C° 0 mm 3 m/s 735 mmHg 39%
    16:00 +36°C° 0 mm 3 m/s 735 mmHg 47%
    17:00 +34°C° 0 mm 4 m/s 735 mmHg 55%
    18:00 +32°C° 0 mm 5 m/s 735 mmHg 62%
    19:00 +29°C° 0 mm 3 m/s 736 mmHg 69%
    20:00 +28°C° 0 mm 2 m/s 736 mmHg 76%
    21:00 +24°C° 0 mm 0 m/s 737 mmHg 85%
    22:00 +25°C° 0.3 mm 1 m/s 737 mmHg 88%
    23:00 +24°C° 0.3 mm 1 m/s 736 mmHg 90%

    Demain, 24 Juillet, Mercredi

    Heure Température Précipitation Vent Pression Humidité
    00:00 +24°C° 0.3 mm 1 m/s 736 mmHg 93%
    01:00 +22°C° 0 mm 0 m/s 736 mmHg 93%
    02:00 +22°C° 0 mm 0 m/s 736 mmHg 93%
    03:00 +22°C° 0 mm 0 m/s 736 mmHg 93%
    04:00 +21°C° 0 mm 0 m/s 736 mmHg 94%
    05:00 +21°C° 0 mm 0 m/s 736 mmHg 94%
    06:00 +21°C° 0 mm 0 m/s 736 mmHg 95%
    07:00 +25°C° 0 mm 1 m/s 736 mmHg 91%
    08:00 +26°C° 0 mm 1 m/s 736 mmHg 87%
    09:00 +27°C° 0 mm 1 m/s 736 mmHg 83%
    10:00 +29°C° 0.1 mm 1 m/s 735 mmHg 76%
    11:00 +30°C° 0.1 mm 2 m/s 735 mmHg 69%
    12:00 +32°C° 0.1 mm 2 m/s 735 mmHg 62%
    13:00 +32°C° 0.7 mm 2 m/s 735 mmHg 63%
    14:00 +32°C° 0.7 mm 2 m/s 735 mmHg 65%
    15:00 +34°C° 0.7 mm 2 m/s 735 mmHg 66%
    16:00 +32°C° 1.7 mm 2 m/s 735 mmHg 73%
    17:00 +30°C° 1.7 mm 2 m/s 735 mmHg 79%
    18:00 +29°C° 1.7 mm 1 m/s 735 mmHg 86%
    19:00 +28°C° 0.6 mm 1 m/s 735 mmHg 89%
    20:00 +26°C° 0.6 mm 1 m/s 735 mmHg 93%
    21:00 +24°C° 0.6 mm 1 m/s 736 mmHg 97%
    22:00 +24°C° 0.1 mm 1 m/s 736 mmHg 97%
    23:00 +24°C° 0.1 mm 1 m/s 736 mmHg 97%

    Après-demain, 25 Juillet, Jeudi

    Heure Température Précipitation Vent Pression Humidité
    00:00 +24°C° 0.1 mm 1 m/s 736 mmHg 98%
    01:00 +22°C° 0 mm 0 m/s 736 mmHg 98%
    02:00 +22°C° 0 mm 0 m/s 736 mmHg 97%
    03:00 +21°C° 0 mm 0 m/s 736 mmHg 97%
    04:00 +22°C° 0 mm 0 m/s 736 mmHg 97%
    05:00 +24°C° 0 mm 1 m/s 736 mmHg 97%
    06:00 +24°C° 0 mm 1 m/s 737 mmHg 97%
    07:00 +25°C° 0 mm 1 m/s 737 mmHg 93%
    08:00 +26°C° 0 mm 1 m/s 737 mmHg 89%
    09:00 +27°C° 0 mm 1 m/s 737 mmHg 85%
    10:00 +28°C° 0.3 mm 1 m/s 737 mmHg 80%
    11:00 +30°C° 0.3 mm 2 m/s 737 mmHg 75%
    12:00 +31°C° 0.3 mm 2 m/s 736 mmHg 70%
    13:00 +31°C° 0.1 mm 2 m/s 736 mmHg 70%
    14:00 +31°C° 0.1 mm 3 m/s 736 mmHg 71%
    15:00 +31°C° 0.1 mm 3 m/s 736 mmHg 72%
    16:00 +29°C° 0.7 mm 3 m/s 736 mmHg 78%
    17:00 +28°C° 0.7 mm 2 m/s 736 mmHg 84%
    18:00 +27°C° 0.7 mm 2 m/s 736 mmHg 90%
    19:00 +26°C° 0.5 mm 2 m/s 736 mmHg 93%
    20:00 +24°C° 0.5 mm 1 m/s 737 mmHg 95%
    21:00 +23°C° 0.5 mm 1 m/s 737 mmHg 98%
    22:00 +23°C° 0 mm 1 m/s 737 mmHg 98%
    23:00 +23°C° 0 mm 1 m/s 737 mmHg 98%

    26 Juillet, Vendredi

    Heure Température Précipitation Vent Pression Humidité
    00:00 +23°C° 0 mm 1 m/s 737 mmHg 98%
    01:00 +23°C° 0.1 mm 1 m/s 737 mmHg 98%
    02:00 +21°C° 0.1 mm 0 m/s 737 mmHg 98%
    03:00 +21°C° 0.1 mm 0 m/s 737 mmHg 98%
    04:00 +21°C° 0 mm 0 m/s 737 mmHg 98%
    05:00 +21°C° 0 mm 0 m/s 737 mmHg 98%
    06:00 +21°C° 0 mm 0 m/s 737 mmHg 98%
    07:00 +24°C° 0 mm 1 m/s 737 mmHg 95%
    08:00 +25°C° 0 mm 1 m/s 737 mmHg 91%
    09:00 +26°C° 0 mm 1 m/s 737 mmHg 88%
    10:00 +27°C° 0.1 mm 1 m/s 737 mmHg 82%
    11:00 +28°C° 0.1 mm 1 m/s 737 mmHg 77%
    12:00 +29°C° 0.1 mm 2 m/s 737 mmHg 71%
    13:00 +31°C° 0 mm 2 m/s 737 mmHg 66%
    14:00 +32°C° 0 mm 2 m/s 736 mmHg 60%
    15:00 +34°C° 0 mm 3 m/s 736 mmHg 55%
    16:00 +34°C° 0 mm 2 m/s 736 mmHg 60%
    17:00 +32°C° 0 mm 2 m/s 736 mmHg 65%
    18:00 +31°C° 0 mm 2 m/s 736 mmHg 70%
    19:00 +29°C° 1.1 mm 2 m/s 736 mmHg 79%
    20:00 +27°C° 1.1 mm 1 m/s 737 mmHg 87%
    21:00 +25°C° 1.1 mm 1 m/s 737 mmHg 96%
    22:00 +24°C° 0.3 mm 1 m/s 737 mmHg 97%
    23:00 +24°C° 0.3 mm 1 m/s 737 mmHg 97%

    27 Juillet, Samedi

    Heure Température Précipitation Vent Pression Humidité
    00:00 +23°C° 0.3 mm 1 m/s 737 mmHg 98%
    01:00 +23°C° 0 mm 1 m/s 737 mmHg 98%
    02:00 +21°C° 0 mm 0 m/s 738 mmHg 98%
    03:00 +21°C° 0 mm 0 m/s 738 mmHg 98%
    04:00 +21°C° 0 mm 0 m/s 738 mmHg 97%
    05:00 +21°C° 0 mm 0 m/s 738 mmHg 97%
    06:00 +21°C° 0 mm 0 m/s 738 mmHg 97%
    07:00 +23°C° 0 mm 0 m/s 738 mmHg 92%
    08:00 +24°C° 0 mm 0 m/s 738 mmHg 87%
    09:00 +28°C° 0 mm 1 m/s 738 mmHg 82%
    10:00 +30°C° 0 mm 1 m/s 738 mmHg 72%
    11:00 +33°C° 0 mm 1 m/s 738 mmHg 62%
    12:00 +36°C° 0 mm 1 m/s 738 mmHg 52%
    13:00 +36°C° 0 mm 1 m/s 738 mmHg 48%
    14:00 +37°C° 0 mm 1 m/s 737 mmHg 44%
    15:00 +39°C° 0 mm 1 m/s 737 mmHg 41%
    16:00 +37°C° 0 mm 1 m/s 737 mmHg 47%
    17:00 +37°C° 0 mm 2 m/s 737 mmHg 53%
    18:00 +36°C° 0 mm 2 m/s 737 mmHg 59%
    19:00 +32°C° 0 mm 2 m/s 737 mmHg 69%
    20:00 +30°C° 0 mm 1 m/s 738 mmHg 78%
    21:00 +27°C° 0 mm 1 m/s 738 mmHg 88%
    22:00 +26°C° 0.2 mm 1 m/s 738 mmHg 90%
    23:00 +25°C° 0.2 mm 1 m/s 738 mmHg 93%

    28 Juillet, Dimanche

    Heure Température Précipitation Vent Pression Humidité
    00:00 +24°C° 0.2 mm 1 m/s 738 mmHg 95%
    01:00 +24°C° 0.1 mm 1 m/s 738 mmHg 96%
    02:00 +22°C° 0.1 mm 0 m/s 738 mmHg 96%
    03:00 +21°C° 0.1 mm 0 m/s 738 mmHg 96%
    04:00 +21°C° 0 mm 0 m/s 738 mmHg 97%
    05:00 +21°C° 0 mm 0 m/s 738 mmHg 97%
    06:00 +22°C° 0 mm 0 m/s 738 mmHg 97%
    07:00 +23°C° 0 mm 0 m/s 738 mmHg 90%
    08:00 +25°C° 0 mm 0 m/s 738 mmHg 84%
    09:00 +29°C° 0 mm 1 m/s 738 mmHg 78%
    10:00 +31°C° 0 mm 1 m/s 738 mmHg 70%
    11:00 +33°C° 0 mm 1 m/s 737 mmHg 62%
    12:00 +36°C° 0 mm 2 m/s 737 mmHg 54%
    13:00 +37°C° 0 mm 3 m/s 737 mmHg 52%
    14:00 +37°C° 0 mm 3 m/s 736 mmHg 50%
    15:00 +38°C° 0 mm 4 m/s 736 mmHg 49%
    16:00 +36°C° 0 mm 3 m/s 735 mmHg 55%
    17:00 +35°C° 0 mm 3 m/s 735 mmHg 62%
    18:00 +33°C° 0 mm 3 m/s 735 mmHg 68%
    19:00 +30°C° 0 mm 2 m/s 735 mmHg 77%
    20:00 +27°C° 0 mm 2 m/s 735 mmHg 86%
    21:00 +25°C° 0 mm 1 m/s 736 mmHg 95%
    22:00 +25°C° 0.2 mm 1 m/s 736 mmHg 96%
    23:00 +23°C° 0.2 mm 0 m/s 736 mmHg 97%
    Voir plus